APRIZESAT 3

Last updated on Wed Sep 09 2026 00:03:17 GMT+0000 (Coordinated Universal Time)

1 35686U 09041F 26251.28620811 .00000793 00000+0 73153-4 0 9997 2 35686 98.2172 48.5611 0061932 151.8377 208.6216 14.96438799928809
UTC large
Height (km)
Speed (km/s)
/
Latitude / Longitude
Inclination (degrees)
Orbital Period (minutes)
Azimuth
Elevation
Range (km)
Doppler Factor

Next 0 passes for location: London (51.5072 / 0.1276)

No passes found over London.
APRIZESAT 3